Waukesha, WI

11:30 AM CST on February 26, 2017 (GMT -0600)
Waukesha County

Weather History for KUES - November, 2011

Change the Weather History Date:

Monday, November 21, 2011

  Actual Average Record
Temperature  
Mean Temperature 34 °F -  
Max Temperature 37 °F 39 °F 57 °F (1963)
Min Temperature 30 °F 26 °F 1 °F (2014)
Degree Days  
Heating Degree Days 32    
Moisture  
Dew Point 28 °F    
Average Humidity 85    
Maximum Humidity 100    
Minimum Humidity 70    
Precipitation  
Precipitation 0.00 in - - ()
Sea Level Pressure  
Sea Level Pressure 30.29 in    
Wind  
Wind Speed 3 mph (NE)    
Max Wind Speed 9 mph    
Max Gust Speed -    
Visibility 10 miles    
Events      
Averages and records for this station are not official NWS values.
T = Trace of Precipitation, MM = Missing Value Source: NWS Daily Summary

Daily Weather History Graph

Daily Weather History Graph

Search for Another Location

Airport or City:

Trip Planner

Search our weather history database for the weather conditions in past years. The results will help you decide how hot, cold, wet, or windy it might be!

Date:

Astronomy

Nov. 21, 2011 Rise Set
Actual Time 6:52 AM CST 4:24 PM CST
Civil Twilight 6:21 AM CST 4:55 PM CST
Nautical Twilight 5:46 AM CST 5:30 PM CST
Astronomical Twilight 5:13 AM CST 6:04 PM CST
Moon 2:25 AM CST (11/21) 1:51 PM CST (11/21)
Length of Visible Light 10h 34m
Length of Day
9h 31m
Waning Crescent, 17% of the Moon is Illuminated
Nov 21
Waning Crescent
Nov 25
New
Dec 2
First Quarter
Dec 10
Full
Dec 17
Last Quarter

Hourly Weather History & Observations

Time (CST) Temp. Windchill Dew Point Humidity Pressure Visibility Wind Dir Wind Speed Gust Speed Precip Events Conditions
12:15 AM 30.2 °F - 24.8 °F 80% 30.33 in 10.0 mi Calm Calm - N/A   Overcast
12:35 AM 30.2 °F - 24.8 °F 80% 30.32 in 10.0 mi Calm Calm - N/A   Overcast
12:55 AM 30.2 °F - 24.8 °F 80% 30.32 in 10.0 mi Calm Calm - N/A   Overcast
1:15 AM 30.2 °F - 24.8 °F 80% 30.32 in 10.0 mi Calm Calm - N/A   Overcast
1:35 AM 30.2 °F 26.7 °F 26.6 °F 86% 30.32 in 10.0 mi North 3.5 mph - N/A   Overcast
1:55 AM 30.2 °F - 26.6 °F 86% 30.33 in 10.0 mi Calm Calm - N/A   Overcast
2:35 AM 30.2 °F 25.4 °F 26.6 °F 86% 30.33 in 10.0 mi North 4.6 mph - N/A   Overcast
2:55 AM 30.2 °F 26.7 °F 26.6 °F 86% 30.33 in 10.0 mi North 3.5 mph - N/A   Overcast
3:15 AM 30.2 °F 25.4 °F 26.6 °F 86% 30.33 in 10.0 mi NNE 4.6 mph - N/A   Overcast
3:35 AM 30.2 °F 25.4 °F 26.6 °F 86% 30.34 in 10.0 mi NNW 4.6 mph - N/A   Overcast
3:55 AM 30.2 °F 25.4 °F 26.6 °F 86% 30.34 in 10.0 mi North 4.6 mph - N/A   Overcast
4:15 AM 30.2 °F - 26.6 °F 86% 30.33 in 10.0 mi Calm Calm - N/A   Overcast
4:35 AM 30.2 °F 26.7 °F 26.6 °F 86% 30.33 in 10.0 mi North 3.5 mph - N/A   Overcast
5:45 AM 30.2 °F 23.4 °F 24.8 °F 80% 30.34 in 10.0 mi NNE 6.9 mph - N/A   Overcast
6:45 AM 30.2 °F 23.4 °F 24.8 °F 80% 30.35 in 10.0 mi ENE 6.9 mph - N/A   Overcast
7:45 AM 30.2 °F 23.4 °F 26.6 °F 86% 30.35 in 10.0 mi ENE 6.9 mph - N/A   Overcast
8:45 AM 33.8 °F 27.7 °F 26.6 °F 75% 30.35 in 10.0 mi ENE 6.9 mph - N/A   Overcast
10:45 AM 35.6 °F 30.7 °F 28.4 °F 75% 30.34 in 10.0 mi NE 5.8 mph - N/A   Overcast
11:45 AM 37.4 °F 32.8 °F 28.4 °F 70% 30.31 in 10.0 mi NE 5.8 mph - N/A   Overcast
12:45 PM 37.4 °F 32.1 °F 30.2 °F 75% 30.28 in 10.0 mi ENE 6.9 mph - N/A   Overcast
2:45 PM 37.4 °F 30.8 °F 28.4 °F 70% 30.27 in 10.0 mi ENE 9.2 mph - N/A   Overcast
3:45 PM 35.6 °F 28.6 °F 30.2 °F 81% 30.28 in 10.0 mi East 9.2 mph - N/A   Overcast
5:45 PM 33.8 °F 27.7 °F 28.4 °F 81% 30.26 in 10.0 mi ENE 6.9 mph - N/A   Mostly Cloudy
6:45 PM 33.8 °F 27.7 °F 28.4 °F 81% 30.27 in 10.0 mi ENE 6.9 mph - N/A   Mostly Cloudy
6:47 PM 33.8 °F 27.7 °F 28.4 °F 81% 30.27 in 10.0 mi ENE 6.9 mph - N/A   Mostly Cloudy
7:45 PM 33.8 °F 29.6 °F 28.4 °F 81% 30.26 in 10.0 mi ENE 4.6 mph - N/A   Overcast
8:15 PM 33.8 °F 29.6 °F 30.2 °F 87% 30.24 in 10.0 mi ENE 4.6 mph - N/A   Overcast
8:35 PM 33.8 °F 28.6 °F 30.2 °F 87% 30.24 in 10.0 mi ENE 5.8 mph - N/A   Overcast
8:45 PM 33.8 °F 27.7 °F 30.2 °F 87% 30.23 in 10.0 mi ENE 6.9 mph - N/A   Overcast
8:55 PM 33.8 °F 27.7 °F 30.2 °F 87% 30.23 in 10.0 mi ENE 6.9 mph - N/A   Mostly Cloudy
9:15 PM 32.0 °F 25.6 °F 30.2 °F 93% 30.23 in 10.0 mi NE 6.9 mph - N/A   Scattered Clouds
9:35 PM 32.0 °F 26.4 °F 30.2 °F 93% 30.23 in 10.0 mi ENE 5.8 mph - N/A   Clear
9:55 PM 32.0 °F 27.5 °F 30.2 °F 93% 30.23 in 10.0 mi ENE 4.6 mph - N/A   Clear
10:15 PM 32.0 °F 27.5 °F 30.2 °F 93% 30.23 in 10.0 mi ENE 4.6 mph - N/A   Clear
10:35 PM 32.0 °F 27.5 °F 30.2 °F 93% 30.23 in 10.0 mi NE 4.6 mph - N/A   Clear
10:55 PM 32.0 °F 28.7 °F 30.2 °F 93% 30.22 in 10.0 mi ENE 3.5 mph - N/A   Clear
11:15 PM 32.0 °F 28.7 °F 30.2 °F 93% 30.23 in 10.0 mi NE 3.5 mph - N/A   Clear
11:35 PM 32.0 °F 27.5 °F 30.2 °F 93% 30.24 in 10.0 mi NE 4.6 mph - N/A   Clear
11:55 PM 32.0 °F 28.7 °F 32.0 °F 100% 30.23 in 10.0 mi NNE 3.5 mph - N/A   Clear